Greenwich, CT

4:31 PM EST on January 23, 2017 (GMT -0500)
Westchester County

Weather History for KHPN - February, 2013

Change the Weather History Date:

Tuesday, February 26, 2013

  Actual Average Record
Temperature  
Mean Temperature 34 °F -  
Max Temperature 39 °F 40 °F 59 °F (1998)
Min Temperature 30 °F 26 °F 4 °F (1990)
Degree Days  
Heating Degree Days 30    
Moisture  
Dew Point 28 °F    
Average Humidity 72    
Maximum Humidity 86    
Minimum Humidity 60    
Precipitation  
Precipitation 0.16 in - - ()
Sea Level Pressure  
Sea Level Pressure 30.20 in    
Wind  
Wind Speed 6 mph (East)    
Max Wind Speed 20 mph    
Max Gust Speed 29 mph    
Visibility 9 miles    
Events Rain    
Averages and records for this station are not official NWS values.
T = Trace of Precipitation, MM = Missing Value Source: NWS Daily Summary

Daily Weather History Graph

Daily Weather History Graph

Search for Another Location

Airport or City:

Trip Planner

Search our weather history database for the weather conditions in past years. The results will help you decide how hot, cold, wet, or windy it might be!

Date:

Astronomy

Feb. 26, 2013 Rise Set
Actual Time 6:33 AM EST 5:42 PM EST
Civil Twilight 6:05 AM EST 6:10 PM EST
Nautical Twilight 5:33 AM EST 6:42 PM EST
Astronomical Twilight 5:01 AM EST 7:14 PM EST
Moon 6:57 PM EST (2/26) 6:33 AM EST (2/26)
Length of Visible Light 12h 04m
Length of Day
11h 09m
Full, 99% of the Moon is Illuminated
Feb 26
Full
Mar 4
Last Quarter
Mar 11
New
Mar 19
First Quarter
Mar 27
Full

Hourly Weather History & Observations

Time (EST) Temp. Windchill Dew Point Humidity Pressure Visibility Wind Dir Wind Speed Gust Speed Precip Events Conditions
12:56 AM 35.1 °F 32.2 °F 24.1 °F 64% 30.22 in 10.0 mi NE 3.5 mph - N/A   Clear
1:56 AM 30.9 °F - 24.1 °F 76% 30.26 in 10.0 mi Calm Calm - N/A   Clear
2:56 AM 30.9 °F - 25.0 °F 79% 30.26 in 10.0 mi Calm Calm - N/A   Clear
3:56 AM 30.0 °F - 24.1 °F 79% 30.25 in 10.0 mi Calm Calm - N/A   Clear
4:56 AM 30.9 °F 27.5 °F 26.1 °F 82% 30.25 in 10.0 mi NE 3.5 mph - N/A   Mostly Cloudy
5:07 AM 30.2 °F - 26.6 °F 86% 30.23 in 10.0 mi Calm Calm - N/A   Scattered Clouds
5:56 AM 32.0 °F 28.7 °F 27.0 °F 82% 30.25 in 10.0 mi ENE 3.5 mph - N/A   Clear
6:56 AM 33.8 °F 29.6 °F 26.6 °F 75% 30.23 in 10.0 mi Variable 4.6 mph - N/A   Clear
7:56 AM 36.0 °F 32.1 °F 28.0 °F 73% 30.28 in 10.0 mi East 4.6 mph - N/A   Mostly Cloudy
8:56 AM 37.0 °F 33.3 °F 28.0 °F 70% 30.30 in 10.0 mi ESE 4.6 mph - N/A   Mostly Cloudy
9:56 AM 37.9 °F 32.7 °F 28.0 °F 68% 30.29 in 10.0 mi East 6.9 mph - N/A   Mostly Cloudy
10:56 AM 37.9 °F 33.5 °F 27.0 °F 65% 30.30 in 10.0 mi East 5.8 mph - N/A   Overcast
11:56 AM 37.9 °F 32.7 °F 27.0 °F 65% 30.29 in 10.0 mi East 6.9 mph - N/A   Overcast
12:56 PM 39.9 °F 35.1 °F 27.0 °F 60% 30.26 in 10.0 mi Variable 6.9 mph - N/A   Overcast
1:56 PM 39.9 °F 33.4 °F 27.0 °F 60% 30.23 in 10.0 mi East 10.4 mph - N/A   Overcast
2:56 PM 39.0 °F 32.8 °F 28.0 °F 65% 30.24 in 10.0 mi ESE 9.2 mph - N/A   Overcast
3:56 PM 39.9 °F 33.4 °F 28.0 °F 63% 30.20 in 10.0 mi East 10.4 mph 17.3 mph N/A   Overcast
4:03 PM 39.2 °F 31.6 °F 28.4 °F 65% 30.17 in 10.0 mi East 12.7 mph 20.7 mph N/A   Mostly Cloudy
4:56 PM 37.9 °F 31.5 °F 28.9 °F 70% 30.19 in 10.0 mi East 9.2 mph 18.4 mph N/A   Overcast
5:56 PM 37.0 °F 29.3 °F 28.0 °F 70% 30.17 in 10.0 mi East 11.5 mph 19.6 mph N/A   Overcast
6:56 PM 37.0 °F 29.8 °F 27.0 °F 67% 30.15 in 10.0 mi East 10.4 mph 18.4 mph N/A   Mostly Cloudy
7:56 PM 37.0 °F 28.9 °F 28.0 °F 70% 30.13 in 6.0 mi East 12.7 mph 23.0 mph N/A Rain Light Rain
8:18 PM 35.6 °F 26.6 °F 28.4 °F 75% 30.10 in 6.0 mi East 13.8 mph 20.7 mph 0.00 in Rain Light Rain
8:56 PM 36.0 °F 29.0 °F 30.0 °F 79% 30.08 in 6.0 mi East 9.2 mph 23.0 mph 0.01 in Rain Light Rain
9:56 PM 35.1 °F 25.9 °F 30.0 °F 82% 30.04 in 6.0 mi East 13.8 mph 26.5 mph 0.02 in Rain Light Rain
10:56 PM 36.0 °F 26.7 °F 30.9 °F 82% 30.00 in 3.0 mi East 15.0 mph 26.5 mph 0.05 in Rain Rain
11:56 PM 37.0 °F 26.7 °F 32.0 °F 82% 29.94 in 5.0 mi East 19.6 mph 28.8 mph 0.08 in Rain Light Rain